,,PressureMeas_1m,,PRMeasQMR101_1,,RHStat155_1m_1,,SRMeasQMS101R_1m,,TAStat155_1m_1,,GenWind_1,,GenWind_1,
2017-08-31, 07:00:06,VALID,918.307,VALID,0.0,VALID,98.771,VALID,144.498,VALID,19.226,VALID,151.0,VALID,2.171,
2017-08-31, 07:01:06,VALID,918.33,VALID,0.0,VALID,98.78,VALID,135.661,VALID,19.256,VALID,144.0,VALID,1.884,
2017-08-31, 07:02:06,VALID,918.338,VALID,0.0,VALID,98.802,VALID,122.26,VALID,19.317,VALID,143.0,VALID,1.99,
2017-08-31, 07:03:06,VALID,918.335,VALID,0.0,VALID,98.77,VALID,97.701,VALID,19.314,VALID,135.0,VALID,1.768,
2017-08-31, 07:04:06,VALID,918.333,VALID,0.0,VALID,98.788,VALID,114.79,VALID,19.341,VALID,136.0,VALID,1.813,
2017-08-31, 07:05:06,VALID,918.334,VALID,0.0,VALID,98.75,VALID,172.144,VALID,19.368,VALID,135.0,VALID,1.615,
2017-08-31, 07:06:06,VALID,918.344,VALID,0.0,VALID,98.76,VALID,176.02,VALID,19.466,VALID,127.0,VALID,1.241,
2017-08-31, 07:07:06,VALID,918.352,VALID,0.0,VALID,98.755,VALID,177.683,VALID,19.568,VALID,138.0,VALID,1.218,
2017-08-31, 07:08:06,VALID,918.363,VALID,0.0,VALID,98.751,VALID,181.158,VALID,19.661,VALID,133.0,VALID,1.425,
2017-08-31, 07:09:06,VALID,918.372,VALID,0.0,VALID,98.669,VALID,174.81,VALID,19.67,VALID,142.0,VALID,1.37,
2017-08-31, 07:10:06,VALID,918.38,VALID,0.0,VALID,98.669,VALID,137.445,VALID,19.714,VALID,132.0,VALID,1.361,
2017-08-31, 07:11:06,VALID,918.393,VALID,0.0,VALID,98.604,VALID,94.406,VALID,19.696,VALID,139.0,VALID,1.647,
2017-08-31, 07:12:06,VALID,918.39,VALID,0.0,VALID,98.465,VALID,88.885,VALID,19.64,VALID,149.0,VALID,1.448,
2017-08-31, 07:13:06,VALID,918.382,VALID,0.0,VALID,98.444,VALID,91.632,VALID,19.668,VALID,148.0,VALID,1.233,
2017-08-31, 07:14:06,VALID,918.382,VALID,0.0,VALID,98.432,VALID,96.446,VALID,19.711,VALID,140.0,VALID,1.42,
2017-08-31, 07:15:06,VALID,918.387,VALID,0.0,VALID,98.291,VALID,105.94,VALID,19.68,VALID,138.0,VALID,1.647,
2017-08-31, 07:16:06,VALID,918.4,VALID,0.0,VALID,98.249,VALID,122.518,VALID,19.732,VALID,145.0,VALID,1.44,
2017-08-31, 07:17:06,VALID,918.416,VALID,0.0,VALID,98.14,VALID,107.298,VALID,19.726,VALID,136.0,VALID,1.435,
2017-08-31, 07:18:06,VALID,918.439,VALID,0.0,VALID,98.096,VALID,105.148,VALID,19.759,VALID,144.0,VALID,1.229,
2017-08-31, 07:19:06,VALID,918.467,VALID,0.0,VALID,97.959,VALID,103.847,VALID,19.757,VALID,159.0,VALID,0.927,
2017-08-31, 07:20:06,VALID,918.484,VALID,0.0,VALID,97.909,VALID,109.402,VALID,19.792,VALID,158.0,VALID,1.13,
2017-08-31, 07:21:06,VALID,918.499,VALID,0.0,VALID,97.745,VALID,102.025,VALID,19.782,VALID,155.0,VALID,1.14,
2017-08-31, 07:22:06,VALID,918.517,VALID,0.0,VALID,97.717,VALID,96.814,VALID,19.812,VALID,149.0,VALID,1.166,
2017-08-31, 07:23:06,VALID,918.531,VALID,0.0,VALID,97.641,VALID,93.245,VALID,19.814,VALID,152.0,VALID,1.354,
2017-08-31, 07:24:06,VALID,918.525,VALID,0.0,VALID,97.686,VALID,91.326,VALID,19.856,VALID,178.0,VALID,0.98,
2017-08-31, 07:25:06,VALID,918.54,VALID,0.0,VALID,97.567,VALID,90.121,VALID,19.84,VALID,164.0,VALID,0.966,
2017-08-31, 07:26:06,VALID,918.52,VALID,0.0,VALID,97.425,VALID,90.801,VALID,19.84,VALID,181.0,VALID,0.646,
2017-08-31, 07:27:06,VALID,918.517,VALID,0.0,VALID,97.453,VALID,91.633,VALID,19.888,VALID,176.0,VALID,0.551,
2017-08-31, 07:28:06,VALID,918.512,VALID,0.0,VALID,97.424,VALID,92.034,VALID,19.891,VALID,158.0,VALID,0.824,
2017-08-31, 07:29:06,VALID,918.499,VALID,0.0,VALID,97.17,VALID,92.298,VALID,19.862,VALID,145.0,VALID,1.28,
2017-08-31, 07:30:06,VALID,918.504,VALID,0.0,VALID,96.969,VALID,92.45,VALID,19.819,VALID,142.0,VALID,1.323,
2017-08-31, 07:31:06,VALID,918.513,VALID,0.0,VALID,96.96,VALID,93.192,VALID,19.829,VALID,139.0,VALID,1.263,
2017-08-31, 07:32:06,VALID,918.53,VALID,0.0,VALID,97.028,VALID,93.054,VALID,19.864,VALID,121.0,VALID,0.848,
2017-08-31, 07:33:06,VALID,918.544,VALID,0.0,VALID,97.14,VALID,90.633,VALID,19.913,VALID,135.0,VALID,0.935,
2017-08-31, 07:34:06,VALID,918.543,VALID,0.0,VALID,97.215,VALID,88.095,VALID,19.982,VALID,147.0,VALID,0.661,
2017-08-31, 07:35:06,VALID,918.561,VALID,0.0,VALID,97.23,VALID,85.574,VALID,20.022,VALID,163.0,VALID,0.584,
2017-08-31, 07:36:06,VALID,918.563,VALID,0.0,VALID,96.73,VALID,83.431,VALID,19.979,VALID,152.0,VALID,0.859,
2017-08-31, 07:37:06,VALID,918.57,VALID,0.0,VALID,96.585,VALID,81.433,VALID,19.982,VALID,154.0,VALID,0.748,
2017-08-31, 07:38:06,VALID,918.561,VALID,0.0,VALID,96.392,VALID,80.01,VALID,19.988,VALID,153.0,VALID,0.6,
2017-08-31, 07:39:06,VALID,918.583,VALID,0.0,VALID,96.374,VALID,79.248,VALID,20.015,VALID,132.0,VALID,0.654,
2017-08-31, 07:40:06,VALID,918.6,VALID,0.0,VALID,96.297,VALID,79.159,VALID,20.037,VALID,140.0,VALID,0.728,
2017-08-31, 07:41:06,VALID,918.593,VALID,0.0,VALID,96.314,VALID,80.083,VALID,20.071,VALID,124.0,VALID,0.534,
2017-08-31, 07:42:06,VALID,918.619,VALID,0.0,VALID,96.437,VALID,80.999,VALID,20.125,VALID,156.0,VALID,0.429,
2017-08-31, 07:43:06,VALID,918.635,VALID,0.0,VALID,96.239,VALID,81.476,VALID,20.142,VALID,151.0,VALID,0.329,
2017-08-31, 07:44:06,VALID,918.64,VALID,0.0,VALID,96.47,VALID,81.182,VALID,20.206,VALID,149.0,VALID,0.189,
2017-08-31, 07:45:06,VALID,918.662,VALID,0.0,VALID,96.394,VALID,81.088,VALID,20.259,VALID,164.0,VALID,0.125,
2017-08-31, 07:46:06,VALID,918.659,VALID,0.0,VALID,96.118,VALID,80.843,VALID,20.282,VALID,162.0,VALID,0.313,
2017-08-31, 07:47:06,VALID,918.665,VALID,0.0,VALID,95.932,VALID,80.866,VALID,20.299,VALID,157.0,VALID,0.234,
2017-08-31, 07:48:06,VALID,918.67,VALID,0.0,VALID,95.617,VALID,83.733,VALID,20.297,VALID,154.0,VALID,0.062,
2017-08-31, 07:49:06,VALID,918.678,VALID,0.0,VALID,95.44,VALID,93.317,VALID,20.322,VALID,152.0,VALID,0.064,
2017-08-31, 07:50:06,VALID,918.687,VALID,0.0,VALID,95.213,VALID,113.495,VALID,20.337,VALID,122.0,VALID,0.152,
2017-08-31, 07:51:06,VALID,918.696,VALID,0.0,VALID,94.853,VALID,145.668,VALID,20.354,VALID,120.0,VALID,0.0,
2017-08-31, 07:52:06,VALID,918.715,VALID,0.0,VALID,94.831,VALID,178.886,VALID,20.427,VALID,120.0,VALID,0.0,
2017-08-31, 07:53:06,VALID,918.729,VALID,0.0,VALID,94.302,VALID,200.449,VALID,20.501,VALID,120.0,VALID,0.0,
2017-08-31, 07:54:06,VALID,918.75,VALID,0.0,VALID,93.668,VALID,212.361,VALID,20.564,VALID,121.0,VALID,0.01,
2017-08-31, 07:55:06,VALID,918.766,VALID,0.0,VALID,93.594,VALID,221.878,VALID,20.603,VALID,196.0,VALID,0.125,
2017-08-31, 07:56:06,VALID,918.789,VALID,0.0,VALID,94.035,VALID,220.814,VALID,20.616,VALID,246.0,VALID,0.237,
2017-08-31, 07:57:06,VALID,918.805,VALID,0.0,VALID,94.43,VALID,198.229,VALID,20.614,VALID,242.0,VALID,0.318,
2017-08-31, 07:58:06,VALID,918.834,VALID,0.0,VALID,95.197,VALID,179.489,VALID,20.635,VALID,242.0,VALID,0.329,
2017-08-31, 07:59:06,VALID,918.848,VALID,0.0,VALID,94.418,VALID,174.467,VALID,20.59,VALID,242.0,VALID,0.358,
2017-08-31, 08:00:06,VALID,918.861,VALID,0.0,VALID,94.192,VALID,175.131,VALID,20.571,VALID,243.0,VALID,0.041,
2017-08-31, 08:01:06,VALID,918.877,VALID,0.0,VALID,94.09,VALID,178.294,VALID,20.606,VALID,244.0,VALID,0.0,
2017-08-31, 08:02:06,VALID,918.883,VALID,0.0,VALID,93.876,VALID,184.777,VALID,20.687,VALID,244.0,VALID,0.0,
2017-08-31, 08:03:06,VALID,918.891,VALID,0.0,VALID,93.569,VALID,195.382,VALID,20.768,VALID,239.0,VALID,0.0,
2017-08-31, 08:04:06,VALID,918.891,VALID,0.0,VALID,93.143,VALID,209.599,VALID,20.841,VALID,258.0,VALID,0.015,
2017-08-31, 08:05:06,VALID,918.894,VALID,0.0,VALID,92.699,VALID,225.946,VALID,20.893,VALID,358.0,VALID,0.28,
2017-08-31, 08:06:06,VALID,918.89,VALID,0.0,VALID,92.776,VALID,240.815,VALID,20.933,VALID,42.0,VALID,0.443,
2017-08-31, 08:07:06,VALID,918.91,VALID,0.0,VALID,92.382,VALID,250.518,VALID,20.926,VALID,42.0,VALID,0.228,
2017-08-31, 08:08:06,VALID,918.926,VALID,0.0,VALID,92.348,VALID,251.93,VALID,20.941,VALID,41.0,VALID,0.046,
2017-08-31, 08:09:06,VALID,918.95,VALID,0.0,VALID,93.578,VALID,237.521,VALID,21.047,VALID,25.0,VALID,0.294,
2017-08-31, 08:10:06,VALID,918.986,VALID,0.0,VALID,93.377,VALID,209.961,VALID,21.158,VALID,19.0,VALID,0.004,
2017-08-31, 08:11:06,VALID,919.011,VALID,0.0,VALID,92.718,VALID,179.575,VALID,21.263,VALID,19.0,VALID,0.0,
2017-08-31, 08:12:06,VALID,919.033,VALID,0.0,VALID,92.336,VALID,156.105,VALID,21.365,VALID,13.0,VALID,0.012,
2017-08-31, 08:13:06,VALID,919.066,VALID,0.0,VALID,91.913,VALID,144.404,VALID,21.469,VALID,353.0,VALID,0.254,
2017-08-31, 08:14:06,VALID,919.078,VALID,0.0,VALID,91.871,VALID,142.994,VALID,21.562,VALID,15.0,VALID,0.433,
2017-08-31, 08:15:06,VALID,919.096,VALID,0.0,VALID,91.486,VALID,143.522,VALID,21.603,VALID,358.0,VALID,0.358,
2017-08-31, 08:16:06,VALID,919.114,VALID,0.0,VALID,91.352,VALID,149.156,VALID,21.583,VALID,1.0,VALID,0.307,
2017-08-31, 08:17:06,VALID,919.124,VALID,0.0,VALID,92.086,VALID,157.787,VALID,21.567,VALID,15.0,VALID,0.602,
2017-08-31, 08:18:06,VALID,919.135,VALID,0.0,VALID,91.851,VALID,165.437,VALID,21.552,VALID,354.0,VALID,0.48,
2017-08-31, 08:19:06,VALID,919.142,VALID,0.0,VALID,91.951,VALID,178.439,VALID,21.545,VALID,14.0,VALID,0.704,
2017-08-31, 08:20:06,VALID,919.141,VALID,0.0,VALID,92.001,VALID,189.588,VALID,21.528,VALID,42.0,VALID,0.928,
2017-08-31, 08:21:06,VALID,919.149,VALID,0.0,VALID,92.088,VALID,202.818,VALID,21.45,VALID,22.0,VALID,0.78,
2017-08-31, 08:22:06,VALID,919.146,VALID,0.0,VALID,92.194,VALID,209.085,VALID,21.429,VALID,42.0,VALID,0.604,
2017-08-31, 08:23:06,VALID,919.148,VALID,0.0,VALID,92.306,VALID,219.62,VALID,21.457,VALID,50.0,VALID,0.657,
2017-08-31, 08:24:06,VALID,919.149,VALID,0.0,VALID,92.051,VALID,216.746,VALID,21.449,VALID,7.0,VALID,0.838,
2017-08-31, 08:25:06,VALID,919.155,VALID,0.0,VALID,91.535,VALID,190.761,VALID,21.438,VALID,17.0,VALID,0.668,
2017-08-31, 08:26:06,VALID,919.174,VALID,0.0,VALID,92.128,VALID,182.274,VALID,21.436,VALID,15.0,VALID,0.827,
2017-08-31, 08:27:06,VALID,919.189,VALID,0.0,VALID,91.85,VALID,190.515,VALID,21.467,VALID,356.0,VALID,0.767,
2017-08-31, 08:28:06,VALID,919.189,VALID,0.0,VALID,91.886,VALID,203.741,VALID,21.498,VALID,343.0,VALID,0.521,
2017-08-31, 08:29:06,VALID,919.186,VALID,0.0,VALID,92.157,VALID,209.424,VALID,21.553,VALID,359.0,VALID,0.784,
2017-08-31, 08:30:06,VALID,919.184,VALID,0.0,VALID,90.138,VALID,219.694,VALID,21.491,VALID,356.0,VALID,1.05,
2017-08-31, 08:31:06,VALID,919.183,VALID,0.0,VALID,90.646,VALID,227.258,VALID,21.448,VALID,10.0,VALID,0.91,
2017-08-31, 08:32:06,VALID,919.176,VALID,0.0,VALID,91.447,VALID,236.341,VALID,21.465,VALID,351.0,VALID,0.931,
2017-08-31, 08:33:06,VALID,919.161,VALID,0.0,VALID,91.426,VALID,409.368,VALID,21.506,VALID,352.0,VALID,1.365,
2017-08-31, 08:34:06,VALID,919.166,VALID,0.0,VALID,90.434,VALID,248.029,VALID,21.469,VALID,349.0,VALID,1.371,
2017-08-31, 08:35:06,VALID,919.179,VALID,0.0,VALID,90.994,VALID,221.055,VALID,21.453,VALID,354.0,VALID,0.885,
2017-08-31, 08:36:06,VALID,919.184,VALID,0.0,VALID,91.315,VALID,232.949,VALID,21.443,VALID,354.0,VALID,1.238,
2017-08-31, 08:37:06,VALID,919.198,VALID,0.0,VALID,91.694,VALID,270.275,VALID,21.446,VALID,6.0,VALID,1.006,
2017-08-31, 08:38:06,VALID,919.221,VALID,0.0,VALID,92.424,VALID,352.391,VALID,21.535,VALID,343.0,VALID,0.767,
2017-08-31, 08:39:06,VALID,919.234,VALID,0.0,VALID,91.451,VALID,453.733,VALID,21.653,VALID,25.0,VALID,0.456,
2017-08-31, 08:40:06,VALID,919.245,VALID,0.0,VALID,90.935,VALID,604.115,VALID,21.797,VALID,348.0,VALID,0.459,
2017-08-31, 08:41:06,VALID,919.263,VALID,0.0,VALID,89.646,VALID,595.068,VALID,21.957,VALID,332.0,VALID,0.523,
2017-08-31, 08:42:06,VALID,919.267,VALID,0.0,VALID,89.908,VALID,659.925,VALID,22.163,VALID,2.0,VALID,0.78,
2017-08-31, 08:43:06,VALID,919.278,VALID,0.0,VALID,89.11,VALID,663.873,VALID,22.443,VALID,3.0,VALID,1.457,
2017-08-31, 08:44:06,VALID,919.291,VALID,0.0,VALID,87.196,VALID,710.63,VALID,22.733,VALID,357.0,VALID,0.711,
2017-08-31, 08:45:06,VALID,919.293,VALID,0.0,VALID,86.916,VALID,688.559,VALID,22.986,VALID,313.0,VALID,0.316,
2017-08-31, 08:46:06,VALID,919.295,VALID,0.0,VALID,86.554,VALID,409.482,VALID,23.237,VALID,289.0,VALID,0.209,
2017-08-31, 08:47:06,VALID,919.303,VALID,0.0,VALID,84.459,VALID,360.61,VALID,23.449,VALID,307.0,VALID,0.595,
2017-08-31, 08:48:06,VALID,919.319,VALID,0.0,VALID,82.996,VALID,358.541,VALID,23.307,VALID,302.0,VALID,0.352,
2017-08-31, 08:49:06,VALID,919.312,VALID,0.0,VALID,84.439,VALID,439.714,VALID,23.113,VALID,320.0,VALID,0.154,
2017-08-31, 08:50:06,VALID,919.322,VALID,0.0,VALID,84.395,VALID,551.21,VALID,23.142,VALID,324.0,VALID,0.82,
2017-08-31, 08:51:06,VALID,919.311,VALID,0.0,VALID,82.756,VALID,411.938,VALID,22.975,VALID,283.0,VALID,0.721,
2017-08-31, 08:52:06,VALID,919.312,VALID,0.0,VALID,85.134,VALID,410.52,VALID,22.793,VALID,282.0,VALID,0.405,
2017-08-31, 08:53:06,VALID,919.311,VALID,0.0,VALID,86.162,VALID,478.695,VALID,22.814,VALID,272.0,VALID,0.277,
2017-08-31, 08:54:06,VALID,919.305,VALID,0.0,VALID,86.678,VALID,616.946,VALID,22.894,VALID,255.0,VALID,0.282,
2017-08-31, 08:55:06,VALID,919.307,VALID,0.0,VALID,85.736,VALID,638.931,VALID,23.068,VALID,263.0,VALID,0.177,
2017-08-31, 08:56:06,VALID,919.315,VALID,0.0,VALID,85.324,VALID,562.447,VALID,23.286,VALID,257.0,VALID,0.408,
2017-08-31, 08:57:06,VALID,919.308,VALID,0.0,VALID,85.203,VALID,415.569,VALID,23.409,VALID,290.0,VALID,0.384,
2017-08-31, 08:58:06,VALID,919.325,VALID,0.0,VALID,83.963,VALID,371.658,VALID,23.446,VALID,312.0,VALID,0.473,
2017-08-31, 08:59:06,VALID,919.322,VALID,0.0,VALID,84.698,VALID,370.177,VALID,23.456,VALID,312.0,VALID,0.441,
2017-08-31, 09:00:06,VALID,919.315,VALID,0.0,VALID,83.605,VALID,387.43,VALID,23.44,VALID,329.0,VALID,0.302,
2017-08-31, 09:01:06,VALID,919.309,VALID,0.0,VALID,84.212,VALID,369.06,VALID,23.472,VALID,348.0,VALID,0.083,
2017-08-31, 09:02:06,VALID,919.31,VALID,0.0,VALID,83.613,VALID,363.113,VALID,23.557,VALID,262.0,VALID,0.121,
2017-08-31, 09:03:06,VALID,919.289,VALID,0.0,VALID,83.98,VALID,367.237,VALID,23.664,VALID,340.0,VALID,0.083,
2017-08-31, 09:04:06,VALID,919.282,VALID,0.0,VALID,83.327,VALID,418.701,VALID,23.805,VALID,321.0,VALID,0.148,
2017-08-31, 09:05:06,VALID,919.278,VALID,0.0,VALID,83.044,VALID,419.634,VALID,23.923,VALID,301.0,VALID,0.008,
2017-08-31, 09:06:06,VALID,919.262,VALID,0.0,VALID,82.436,VALID,329.065,VALID,24.071,VALID,187.0,VALID,0.119,
2017-08-31, 09:07:06,VALID,919.253,VALID,0.0,VALID,80.571,VALID,320.701,VALID,24.091,VALID,236.0,VALID,0.052,
2017-08-31, 09:08:06,VALID,919.25,VALID,0.0,VALID,81.491,VALID,322.164,VALID,24.061,VALID,293.0,VALID,0.067,
2017-08-31, 09:09:06,VALID,919.251,VALID,0.0,VALID,81.692,VALID,338.647,VALID,24.107,VALID,18.0,VALID,0.123,
2017-08-31, 09:10:06,VALID,919.247,VALID,0.0,VALID,80.764,VALID,319.763,VALID,24.165,VALID,43.0,VALID,0.243,
2017-08-31, 09:11:06,VALID,919.258,VALID,0.0,VALID,80.777,VALID,313.18,VALID,24.192,VALID,14.0,VALID,0.126,
2017-08-31, 09:12:06,VALID,919.278,VALID,0.0,VALID,79.833,VALID,301.709,VALID,24.226,VALID,250.0,VALID,0.195,
2017-08-31, 09:13:06,VALID,919.271,VALID,0.0,VALID,79.766,VALID,292.633,VALID,24.155,VALID,315.0,VALID,0.068,
2017-08-31, 09:14:06,VALID,919.272,VALID,0.0,VALID,79.31,VALID,285.108,VALID,24.05,VALID,308.0,VALID,0.267,
2017-08-31, 09:15:06,VALID,919.276,VALID,0.0,VALID,80.552,VALID,284.558,VALID,23.841,VALID,345.0,VALID,0.086,
2017-08-31, 09:16:06,VALID,919.283,VALID,0.0,VALID,81.451,VALID,286.749,VALID,23.837,VALID,342.0,VALID,0.105,
2017-08-31, 09:17:06,VALID,919.286,VALID,0.0,VALID,81.823,VALID,286.972,VALID,23.838,VALID,359.0,VALID,0.095,
2017-08-31, 09:18:06,VALID,919.279,VALID,0.0,VALID,82.279,VALID,285.659,VALID,23.922,VALID,354.0,VALID,0.253,
2017-08-31, 09:19:06,VALID,919.284,VALID,0.0,VALID,81.33,VALID,288.671,VALID,23.915,VALID,15.0,VALID,0.257,
2017-08-31, 09:20:06,VALID,919.281,VALID,0.0,VALID,82.257,VALID,332.863,VALID,23.986,VALID,38.0,VALID,0.212,
2017-08-31, 09:21:06,VALID,919.294,VALID,0.0,VALID,82.167,VALID,301.96,VALID,24.071,VALID,66.0,VALID,0.482,
2017-08-31, 09:22:06,VALID,919.296,VALID,0.0,VALID,80.008,VALID,339.347,VALID,24.147,VALID,52.0,VALID,0.157,
2017-08-31, 09:23:06,VALID,919.3,VALID,0.0,VALID,79.954,VALID,409.871,VALID,24.167,VALID,338.0,VALID,0.011,
2017-08-31, 09:24:06,VALID,919.307,VALID,0.0,VALID,79.628,VALID,415.843,VALID,24.129,VALID,284.0,VALID,0.611,
2017-08-31, 09:25:06,VALID,919.303,VALID,0.0,VALID,80.794,VALID,359.505,VALID,23.885,VALID,284.0,VALID,0.159,
2017-08-31, 09:26:06,VALID,919.303,VALID,0.0,VALID,81.962,VALID,360.209,VALID,23.845,VALID,298.0,VALID,0.534,
2017-08-31, 09:27:06,VALID,919.305,VALID,0.0,VALID,80.499,VALID,378.952,VALID,23.683,VALID,308.0,VALID,0.755,
2017-08-31, 09:28:06,VALID,919.291,VALID,0.0,VALID,82.161,VALID,495.691,VALID,23.504,VALID,281.0,VALID,0.243,
2017-08-31, 09:29:06,VALID,919.302,VALID,0.0,VALID,83.835,VALID,757.462,VALID,23.626,VALID,303.0,VALID,0.523,
2017-08-31, 09:30:06,VALID,919.297,VALID,0.0,VALID,81.394,VALID,451.602,VALID,23.803,VALID,263.0,VALID,0.055,
2017-08-31, 09:31:06,VALID,919.298,VALID,0.0,VALID,81.98,VALID,428.9,VALID,24.04,VALID,184.0,VALID,0.114,
2017-08-31, 09:32:06,VALID,919.305,VALID,0.0,VALID,80.283,VALID,404.333,VALID,24.252,VALID,15.0,VALID,0.214,
2017-08-31, 09:33:06,VALID,919.312,VALID,0.0,VALID,79.859,VALID,375.67,VALID,24.4,VALID,159.0,VALID,0.273,
2017-08-31, 09:34:06,VALID,919.32,VALID,0.0,VALID,79.704,VALID,345.453,VALID,24.337,VALID,248.0,VALID,0.521,
2017-08-31, 09:35:06,VALID,919.318,VALID,0.0,VALID,80.493,VALID,317.282,VALID,24.21,VALID,259.0,VALID,0.571,
2017-08-31, 09:36:06,VALID,919.318,VALID,0.0,VALID,82.286,VALID,304.788,VALID,24.13,VALID,14.0,VALID,0.285,
2017-08-31, 09:37:06,VALID,919.313,VALID,0.0,VALID,80.589,VALID,284.456,VALID,24.125,VALID,5.0,VALID,0.247,
2017-08-31, 09:38:06,VALID,919.302,VALID,0.0,VALID,81.04,VALID,281.059,VALID,24.106,VALID,353.0,VALID,0.333,
2017-08-31, 09:39:06,VALID,919.293,VALID,0.0,VALID,80.73,VALID,289.508,VALID,24.077,VALID,38.0,VALID,0.14,
2017-08-31, 09:40:06,VALID,919.282,VALID,0.0,VALID,81.333,VALID,286.085,VALID,24.081,VALID,24.0,VALID,0.154,
2017-08-31, 09:41:06,VALID,919.279,VALID,0.0,VALID,81.707,VALID,282.305,VALID,24.19,VALID,337.0,VALID,0.409,
2017-08-31, 09:42:06,VALID,919.278,VALID,0.0,VALID,80.511,VALID,294.432,VALID,24.239,VALID,265.0,VALID,0.179,
2017-08-31, 09:43:06,VALID,919.272,VALID,0.0,VALID,81.15,VALID,400.896,VALID,24.239,VALID,30.0,VALID,0.274,
2017-08-31, 09:44:06,VALID,919.289,VALID,0.0,VALID,81.265,VALID,296.882,VALID,24.267,VALID,143.0,VALID,0.113,
2017-08-31, 09:45:06,VALID,919.302,VALID,0.0,VALID,81.287,VALID,310.739,VALID,24.381,VALID,193.0,VALID,0.174,
2017-08-31, 09:46:06,VALID,919.302,VALID,0.0,VALID,81.061,VALID,502.346,VALID,24.381,VALID,243.0,VALID,0.318,
2017-08-31, 09:47:06,VALID,919.326,VALID,0.0,VALID,80.177,VALID,652.798,VALID,24.271,VALID,283.0,VALID,0.465,
2017-08-31, 09:48:06,VALID,919.326,VALID,0.0,VALID,79.874,VALID,877.398,VALID,24.175,VALID,257.0,VALID,0.302,
2017-08-31, 09:49:06,VALID,919.313,VALID,0.0,VALID,81.563,VALID,673.318,VALID,24.228,VALID,354.0,VALID,0.359,
2017-08-31, 09:50:06,VALID,919.306,VALID,0.0,VALID,81.864,VALID,587.86,VALID,24.466,VALID,53.0,VALID,0.871,
2017-08-31, 09:51:06,VALID,919.301,VALID,0.0,VALID,79.701,VALID,580.648,VALID,24.686,VALID,164.0,VALID,0.762,
2017-08-31, 09:52:06,VALID,919.302,VALID,0.0,VALID,78.813,VALID,672.562,VALID,24.843,VALID,67.0,VALID,0.571,
2017-08-31, 09:53:06,VALID,919.297,VALID,0.0,VALID,76.803,VALID,896.984,VALID,24.852,VALID,329.0,VALID,0.858,
2017-08-31, 09:54:06,VALID,919.286,VALID,0.0,VALID,77.663,VALID,873.028,VALID,24.723,VALID,16.0,VALID,1.389,
2017-08-31, 09:55:06,VALID,919.278,VALID,0.0,VALID,78.651,VALID,877.874,VALID,24.732,VALID,4.0,VALID,0.838,
2017-08-31, 09:56:06,VALID,919.274,VALID,0.0,VALID,77.994,VALID,859.143,VALID,24.955,VALID,282.0,VALID,0.538,
2017-08-31, 09:57:06,VALID,919.249,VALID,0.0,VALID,77.829,VALID,837.572,VALID,25.071,VALID,293.0,VALID,0.503,
2017-08-31, 09:58:06,VALID,919.232,VALID,0.0,VALID,74.99,VALID,665.263,VALID,25.167,VALID,256.0,VALID,0.538,
2017-08-31, 09:59:06,VALID,919.218,VALID,0.0,VALID,76.262,VALID,535.165,VALID,25.136,VALID,273.0,VALID,0.462,
2017-08-31, 10:00:06,VALID,919.215,VALID,0.0,VALID,74.847,VALID,483.483,VALID,25.085,VALID,6.0,VALID,0.376,
2017-08-31, 10:01:06,VALID,919.2,VALID,0.0,VALID,75.535,VALID,292.641,VALID,25.032,VALID,296.0,VALID,0.364,
2017-08-31, 10:02:06,VALID,919.216,VALID,0.0,VALID,77.254,VALID,358.597,VALID,25.04,VALID,56.0,VALID,0.378,
2017-08-31, 10:03:06,VALID,919.183,VALID,0.0,VALID,75.761,VALID,702.444,VALID,25.094,VALID,112.0,VALID,0.131,
2017-08-31, 10:04:06,VALID,919.18,VALID,0.0,VALID,76.432,VALID,752.952,VALID,25.195,VALID,123.0,VALID,0.233,
2017-08-31, 10:05:06,VALID,919.164,VALID,0.0,VALID,77.409,VALID,692.452,VALID,25.446,VALID,186.0,VALID,0.169,
2017-08-31, 10:06:06,VALID,919.166,VALID,0.0,VALID,75.847,VALID,602.418,VALID,25.621,VALID,22.0,VALID,0.3,
2017-08-31, 10:07:06,VALID,919.168,VALID,0.0,VALID,74.695,VALID,641.696,VALID,25.705,VALID,328.0,VALID,0.22,
2017-08-31, 10:08:06,VALID,919.178,VALID,0.0,VALID,74.326,VALID,687.78,VALID,25.707,VALID,309.0,VALID,0.468,
2017-08-31, 10:09:06,VALID,919.182,VALID,0.0,VALID,73.834,VALID,518.087,VALID,25.631,VALID,261.0,VALID,0.626,
2017-08-31, 10:10:06,VALID,919.189,VALID,0.0,VALID,74.959,VALID,273.004,VALID,25.366,VALID,244.0,VALID,0.479,
2017-08-31, 10:11:06,VALID,919.19,VALID,0.0,VALID,76.481,VALID,285.514,VALID,25.16,VALID,294.0,VALID,0.287,
2017-08-31, 10:12:06,VALID,919.175,VALID,0.0,VALID,76.641,VALID,279.183,VALID,25.063,VALID,349.0,VALID,0.434,
2017-08-31, 10:13:06,VALID,919.182,VALID,0.0,VALID,77.03,VALID,292.391,VALID,25.11,VALID,3.0,VALID,0.164,
2017-08-31, 10:14:06,VALID,919.174,VALID,0.0,VALID,77.428,VALID,291.669,VALID,25.145,VALID,16.0,VALID,0.803,
2017-08-31, 10:15:06,VALID,919.161,VALID,0.0,VALID,78.064,VALID,298.5,VALID,25.054,VALID,22.0,VALID,1.033,
2017-08-31, 10:16:06,VALID,919.179,VALID,0.0,VALID,78.792,VALID,350.515,VALID,25.096,VALID,303.0,VALID,0.225,
2017-08-31, 10:17:06,VALID,919.165,VALID,0.0,VALID,77.617,VALID,552.847,VALID,25.185,VALID,2.0,VALID,0.214,
2017-08-31, 10:18:06,VALID,919.184,VALID,0.0,VALID,76.939,VALID,867.493,VALID,25.248,VALID,331.0,VALID,0.379,
2017-08-31, 10:19:06,VALID,919.183,VALID,0.0,VALID,76.906,VALID,920.347,VALID,25.238,VALID,301.0,VALID,0.211,
2017-08-31, 10:20:06,VALID,919.189,VALID,0.0,VALID,77.475,VALID,810.707,VALID,25.468,VALID,15.0,VALID,0.138,
2017-08-31, 10:21:06,VALID,919.199,VALID,0.0,VALID,75.779,VALID,491.547,VALID,25.685,VALID,331.0,VALID,0.578,
2017-08-31, 10:22:06,VALID,919.172,VALID,0.0,VALID,74.037,VALID,347.323,VALID,25.524,VALID,33.0,VALID,0.684,
2017-08-31, 10:23:06,VALID,919.186,VALID,0.0,VALID,75.307,VALID,324.394,VALID,25.215,VALID,260.0,VALID,0.78,
2017-08-31, 10:24:06,VALID,919.161,VALID,0.0,VALID,76.333,VALID,372.495,VALID,24.931,VALID,286.0,VALID,0.28,
2017-08-31, 10:25:06,VALID,919.15,VALID,0.0,VALID,76.218,VALID,680.624,VALID,24.793,VALID,299.0,VALID,0.626,
2017-08-31, 10:26:06,VALID,919.13,VALID,0.0,VALID,78.713,VALID,964.847,VALID,24.713,VALID,355.0,VALID,1.165,
2017-08-31, 10:27:06,VALID,919.105,VALID,0.0,VALID,76.633,VALID,1010.304,VALID,24.829,VALID,290.0,VALID,0.948,
2017-08-31, 10:28:06,VALID,919.069,VALID,0.0,VALID,78.404,VALID,915.955,VALID,24.931,VALID,349.0,VALID,0.682,
2017-08-31, 10:29:06,VALID,919.064,VALID,0.0,VALID,76.332,VALID,776.19,VALID,25.152,VALID,325.0,VALID,0.991,
2017-08-31, 10:30:06,VALID,919.043,VALID,0.0,VALID,75.568,VALID,955.018,VALID,25.184,VALID,303.0,VALID,0.755,
2017-08-31, 10:31:06,VALID,919.025,VALID,0.0,VALID,76.425,VALID,1049.416,VALID,25.305,VALID,358.0,VALID,1.039,
2017-08-31, 10:32:06,VALID,918.986,VALID,0.0,VALID,76.039,VALID,615.893,VALID,25.472,VALID,13.0,VALID,1.525,
2017-08-31, 10:33:06,VALID,918.968,VALID,0.0,VALID,75.386,VALID,439.331,VALID,25.557,VALID,321.0,VALID,0.605,
2017-08-31, 10:34:06,VALID,918.97,VALID,0.0,VALID,76.288,VALID,375.666,VALID,25.689,VALID,16.0,VALID,0.483,
2017-08-31, 10:35:06,VALID,918.952,VALID,0.0,VALID,74.898,VALID,350.724,VALID,25.811,VALID,19.0,VALID,1.429,
2017-08-31, 10:36:06,VALID,918.952,VALID,0.0,VALID,74.681,VALID,343.581,VALID,25.543,VALID,336.0,VALID,0.707,